Location: Bothwell
(42.3833°S, 147.0000°E)
Time: 04:27:38
(UTC+11:00)

SEEDS - Pass Details

Date: 27 September 2022
Orbit: 577 x 595 km, 97.6° (Epoch: 29 November)

Event Time Altitude Azimuth Distance (km) Brightness Sun altitude
Exits shadow 04:23:13 18° 234° (SW) 1,481 ? -17.2°
Drops below altitude 10° 04:24:41 10° 218° (SW) 1,925 ? -16.9°
Sets 04:27:10 0° 204° (SSW) 2,836 ? -16.5°
